Date String (YYYY-MM-DD hh:mm:ss) UTC,Instrument flags,absolute air pressure of the measurement (hPa),sample flow rate (lpm),inlet stack bypass flow (lpm),air temperature of the measurement (°C),ambient temperature measured by the external sensor (°C),aerosol sample conditioner tube jacket temperature (°C),OPC LED temperature (°C),internal box temperature (°C),relative humidity of the measurement (%),span deviation,mass concentration of particles derived from Lorenz-Mie calculation of OPC scattering (μg/m³),mass concentration of particles derived from Lorenz-Mie calculation of OPC scattering (μg/m³),mass concentration of particles derived from Lorenz-Mie calculation of OPC scattering (μg/m³)
DateTimeUTC,F1_M11,P_M11,Q1_M11,Q2_M11,T1_M11,T2_M11,T3_M11,T4_M11,T5_M11,U1_M11,ZSPAN_M11,X0_M11,X2_M11,X1_M11
2024-05-17 07:00:00,SystemResetWarning,0823.1,5.00,000.00,024.7,022.3,000.0,033.5,025.8,016.0,0000.0,0005.94,0002.25,0001.54
2024-05-17 07:01:00,SystemResetWarning,0823.1,4.98,000.00,024.7,022.7,000.0,033.4,026.1,016.1,0000.0,0005.98,0002.25,0001.55
2024-05-17 07:02:00,SystemResetWarning,0823.2,4.99,000.00,024.7,023.0,000.0,033.3,026.2,016.2,0000.0,0006.06,0002.29,0001.56
2024-05-17 07:03:00,SystemResetWarning,0823.1,5.01,000.00,024.8,023.3,000.0,033.3,026.3,016.1,0000.0,0005.01,0002.29,0001.56
2024-05-17 07:04:00,SystemResetWarning,0823.1,5.01,000.00,024.8,023.5,000.0,033.2,026.4,016.2,0000.0,0004.39,0002.28,0001.56
2024-05-17 07:05:00,SystemResetWarning,0823.1,4.99,000.00,024.8,023.7,000.0,033.2,026.5,016.3,0000.0,0004.27,0002.25,0001.55
2024-05-17 07:06:00,SystemResetWarning,0823.1,4.99,000.00,024.9,023.8,000.0,033.2,026.6,016.4,0000.0,0004.05,0002.25,0001.56
2024-05-17 07:07:00,SystemResetWarning,0823.1,5.00,000.00,024.9,024.0,000.0,033.2,026.7,016.4,0000.0,0003.82,0002.22,0001.56
2024-05-17 07:08:00,SystemResetWarning,0823.1,5.01,000.00,024.9,024.1,000.0,033.2,026.7,016.5,0000.0,0003.69,0002.22,0001.56
2024-05-17 07:09:00,SystemResetWarning,0823.1,5.01,000.00,025.0,024.2,000.0,033.2,026.8,016.5,0000.0,0003.76,0002.24,0001.57
2024-05-17 07:10:00,SystemResetWarning,0823.1,4.99,000.00,025.0,024.3,000.0,033.2,026.8,016.5,0000.0,0003.82,0002.26,0001.57
2024-05-17 07:11:00,SystemResetWarning,0823.1,5.00,000.00,025.0,024.3,000.0,033.2,026.8,016.4,0000.0,0003.97,0002.24,0001.56
2024-05-17 07:12:00,SystemResetWarning,0823.1,5.00,000.00,025.1,024.4,000.0,033.2,026.9,016.1,0000.0,0004.04,0002.24,0001.56
2024-05-17 07:13:00,SystemResetWarning,0823.1,5.00,000.00,025.1,024.5,000.0,033.2,026.9,016.2,0000.0,0004.02,0002.22,0001.56
2024-05-17 07:14:00,SystemResetWarning,0823.1,5.00,000.00,025.1,024.5,000.0,033.2,027.0,016.1,0000.0,0003.98,0002.20,0001.57
2024-05-17 07:15:00,SystemResetWarning,0823.1,5.00,000.00,025.2,024.6,000.0,033.3,027.0,016.0,0000.0,0003.96,0002.20,0001.57
2024-05-17 07:16:00,SystemResetWarning,0823.1,5.00,000.00,025.2,024.6,000.0,033.3,027.0,015.9,0000.0,0004.05,0002.23,0001.59
2024-05-17 07:17:00,SystemResetWarning,0823.1,5.00,000.00,025.2,024.6,000.0,033.3,027.1,015.7,0000.0,0003.93,0002.15,0001.58
2024-05-17 07:18:00,SystemResetWarning,0823.0,5.00,000.00,025.3,024.7,000.0,033.3,027.1,015.7,0000.0,0003.81,0002.12,0001.59
2024-05-17 07:19:00,SystemResetWarning,0823.1,5.00,000.00,025.3,024.7,000.0,033.3,027.1,015.8,0000.0,0003.74,0002.13,0001.60
2024-05-17 07:20:00,SystemResetWarning,0823.0,5.00,000.00,025.3,024.8,000.0,033.4,027.1,015.7,0000.0,0003.81,0002.15,0001.60
2024-05-17 07:21:00,SystemResetWarning,0823.1,5.00,000.00,025.4,024.8,000.0,033.4,027.2,015.7,0000.0,0003.85,0002.14,0001.60
2024-05-17 07:22:00,SystemResetWarning,0823.0,5.00,000.00,025.4,024.8,000.0,033.4,027.2,015.5,0000.0,0004.01,0002.20,0001.62
2024-05-17 07:23:00,SystemResetWarning,0823.1,5.00,000.00,025.4,024.8,000.0,033.4,027.2,015.8,0000.0,0004.16,0002.23,0001.62
2024-05-17 07:24:00,SystemResetWarning,0823.1,4.99,000.00,025.5,024.9,000.0,033.5,027.3,015.8,0000.0,0004.19,0002.23,0001.62
2024-05-17 07:25:00,SystemResetWarning,0823.1,4.99,000.00,025.5,024.9,000.0,033.5,027.3,015.8,0000.0,0004.15,0002.22,0001.62
2024-05-17 07:26:00,SystemResetWarning,0823.0,5.00,000.00,025.5,024.9,000.0,033.5,027.3,015.3,0000.0,0005.19,0002.22,0001.61
2024-05-17 07:27:00,SystemResetWarning,0823.0,5.00,000.00,025.5,025.0,000.0,033.5,027.3,014.9,0000.0,0005.65,0002.20,0001.62
2024-05-17 07:28:00,SystemResetWarning,0823.0,5.00,000.00,025.6,025.0,000.0,033.6,027.3,014.7,0000.0,0005.66,0002.20,0001.62
2024-05-17 07:29:00,SystemResetWarning,0823.0,5.00,000.00,025.6,025.0,000.0,033.6,027.4,014.8,0000.0,0005.78,0002.23,0001.61
2024-05-17 07:30:00,SystemResetWarning,0823.0,5.00,000.00,025.6,025.0,000.0,033.6,027.4,014.6,0000.0,0005.79,0002.23,0001.61
2024-05-17 07:31:00,SystemResetWarning,0823.0,5.00,000.00,025.6,025.1,000.0,033.6,027.4,014.4,0000.0,0005.83,0002.23,0001.62
2024-05-17 07:32:00,SystemResetWarning,0823.0,5.01,000.00,025.7,025.1,000.0,033.7,027.4,014.4,0000.0,0005.84,0002.24,0001.61
2024-05-17 07:33:00,SystemResetWarning,0822.9,4.98,000.00,025.5,023.7,000.0,033.7,026.6,014.6,0000.0,0005.54,0002.22,0001.60
2024-05-17 07:34:00,SystemResetWarning,0823.0,5.03,000.00,025.1,021.9,000.0,033.8,025.7,015.0,0000.0,0005.21,0002.20,0001.60
2024-05-17 07:35:00,SystemResetWarning,0822.9,5.00,000.00,024.8,021.9,000.0,033.7,025.6,015.2,0000.0,0006.56,0002.18,0001.60
2024-05-17 07:36:00,SystemResetWarning,0823.0,4.99,000.00,024.7,022.3,000.0,033.5,025.8,015.2,0000.0,0006.73,0002.18,0001.61
2024-05-17 07:37:00,SystemResetWarning,0823.0,5.00,000.00,024.7,022.6,000.0,033.4,026.0,015.1,0000.0,0006.29,0002.22,0001.62
2024-05-17 07:38:00,SystemResetWarning,0822.9,5.01,000.00,024.7,023.0,000.0,033.3,026.2,015.2,0000.0,0005.37,0002.22,0001.61
2024-05-17 07:39:00,SystemResetWarning,0823.0,5.01,000.00,024.8,023.2,000.0,033.3,026.3,015.2,0000.0,0006.73,0002.22,0001.61
2024-05-17 07:40:00,SystemResetWarning,0822.9,5.00,000.00,024.8,023.5,000.0,033.2,026.5,015.1,0000.0,0006.68,0002.20,0001.62
2024-05-17 07:41:00,SystemResetWarning,0822.9,4.99,000.00,024.8,023.7,000.0,033.2,026.5,015.0,0000.0,0006.78,0002.23,0001.62
2024-05-17 07:42:00,SystemResetWarning,0822.8,4.99,000.00,024.9,023.9,000.0,033.2,026.6,014.9,0000.0,0006.82,0002.24,0001.61
2024-05-17 07:43:00,SystemResetWarning,0822.9,5.01,000.00,024.9,024.0,000.0,033.2,026.6,014.9,0000.0,0006.77,0002.23,0001.59
2024-05-17 07:44:00,SystemResetWarning,0822.9,5.01,000.00,025.0,024.1,000.0,033.2,026.7,015.1,0000.0,0006.87,0002.26,0001.59
2024-05-17 07:45:00,SystemResetWarning,0822.8,5.01,000.00,025.0,024.2,000.0,033.2,026.8,015.1,0000.0,0007.14,0002.31,0001.58
2024-05-17 07:46:00,SystemResetWarning,0823.0,4.99,000.00,025.0,024.3,000.0,033.2,026.8,014.9,0000.0,0006.46,0002.34,0001.57
2024-05-17 07:47:00,SystemResetWarning,0822.8,4.99,000.00,025.1,024.4,000.0,033.2,026.9,014.8,0000.0,0005.87,0002.39,0001.56
2024-05-17 07:48:00,SystemResetWarning,0822.9,5.00,000.00,025.1,024.5,000.0,033.2,026.9,014.8,0000.0,0005.93,0002.40,0001.56
2024-05-17 07:49:00,SystemResetWarning,0823.0,5.00,000.00,025.2,024.5,000.0,033.2,027.0,014.8,0000.0,0006.02,0002.42,0001.56
2024-05-17 07:50:00,SystemResetWarning,0822.9,5.01,000.00,025.2,024.6,000.0,033.3,027.0,014.9,0000.0,0004.99,0002.42,0001.55
2024-05-17 07:51:00,SystemResetWarning,0822.9,5.01,000.00,025.2,024.6,000.0,033.3,027.1,014.9,0000.0,0004.60,0002.42,0001.54
2024-05-17 07:52:00,SystemResetWarning,0822.8,4.99,000.00,025.3,024.7,000.0,033.3,027.1,015.0,0000.0,0004.53,0002.38,0001.53
2024-05-17 07:53:00,SystemResetWarning,0823.1,4.99,000.00,025.3,024.7,000.0,033.4,027.1,015.1,0000.0,0004.41,0002.35,0001.51
2024-05-17 07:54:00,SystemResetWarning,0823.0,5.00,000.00,025.3,024.8,000.0,033.4,027.2,015.2,0000.0,0004.49,0002.37,0001.52
2024-05-17 07:55:00,SystemResetWarning,0822.9,5.00,000.00,025.4,024.8,000.0,033.4,027.2,015.2,0000.0,0004.47,0002.36,0001.53
2024-05-17 07:56:00,SystemResetWarning,0822.8,5.00,000.00,025.4,024.8,000.0,033.4,027.2,015.2,0000.0,0004.41,0002.30,0001.54
2024-05-17 07:57:00,SystemResetWarning,0823.1,5.00,000.00,025.4,024.9,000.0,033.5,027.2,015.1,0000.0,0004.58,0002.29,0001.54
2024-05-17 07:58:00,SystemResetWarning,0823.0,5.00,000.00,025.5,024.9,000.0,033.5,027.3,015.0,0000.0,0004.58,0002.28,0001.54
2024-05-17 07:59:00,SystemResetWarning,0823.2,5.00,000.00,025.5,024.9,000.0,033.5,027.3,014.9,0000.0,0004.60,0002.29,0001.54
